Location: Caoba
(9.7667°N, 67.4833°W)
Time: 20:34:57
(UTC+00:00)

GOES 2 Rocket - Pass Details

Date: 13 December 2024
Orbit: 569 x 1662 km, 28.4° (Epoch: 14 January)

Event Time Altitude Azimuth Distance (km) Brightness Sun altitude
Rises 01:41:47 0° 266° (W) 4,599 8.1 -49.0°
Reaches altitude 10° 01:45:33 10° 274° (W) 3,463 7.3 -49.8°
Enters shadow 01:48:07 19° 285° (WNW) 2,740 6.6 -50.4°
